Location: Unspecified
(0.0000°N, 0.0000°E)
Time: 19:53:29
(UTC+02:00)

SWIFT - Visible Passes

Search period start: 25 July 2016 00:00
Search period end: 04 August 2016 00:00
Orbit: 549 x 565 km, 20.6° (Epoch: 24 July)

Date Brightness Start Highest point End Pass type
(mag) Time Alt. Az. Time Alt. Az. Time Alt. Az.
25 Jul 3.7 21:48:30 10° SW 21:50:54 29° SSW 21:50:54 29° SSW visible
26 Jul 2.8 21:43:34 10° WSW 21:47:01 51° SSW 21:47:01 51° SSW visible
27 Jul 2.2 21:38:45 10° WSW 21:43:02 90° NNW 21:43:10 84° ENE visible
28 Jul 2.6 21:34:01 10° WSW 21:38:16 62° NNW 21:39:21 44° NE visible
29 Jul 5.1 06:09:57 10° N 06:11:34 12° NNE 06:13:18 10° NE visible
29 Jul 3.3 21:29:25 10° W 21:33:29 43° NNW 21:35:31 25° NE visible
30 Jul 4.8 06:06:02 15° N 06:06:54 16° NNE 06:09:32 10° ENE visible
30 Jul 4.0 21:24:55 10° W 21:28:44 31° NNW 21:31:39 15° NE visible
31 Jul 4.4 06:02:11 21° NNE 06:02:12 21° NNE 06:05:25 10° ENE visible
31 Jul 2.4 07:40:03 10° WNW 07:44:15 80° NNE 07:48:28 10° ESE visible
31 Jul 4.5 21:20:33 10° WNW 21:23:59 23° NNW 21:27:24 10° NNE visible
01 Aug 4.3 05:58:22 26° NE 05:58:22 26° NE 06:01:08 10° E visible
01 Aug 2.3 07:35:17 10° WNW 07:39:28 71° SSW 07:43:41 10° ESE visible
01 Aug 4.9 21:16:23 10° WNW 21:19:16 17° NNW 21:22:09 10° NNE visible
02 Aug 4.4 05:54:33 25° ENE 05:54:33 25° ENE 05:56:40 10° E visible
02 Aug 2.6 07:30:38 10° W 07:34:42 49° SSW 07:38:47 10° SE visible
02 Aug 5.0 21:12:27 10° NW 21:14:34 13° NNW 21:16:41 10° NNE visible
03 Aug 4.8 05:50:42 20° E 05:50:42 20° E 05:52:05 10° E visible
03 Aug 3.1 07:26:27 12° W 07:29:56 34° SSW 07:33:48 10° SE visible
03 Aug 5.3 21:09:19 10° NNW 21:09:55 10° NNW 21:10:32 10° N visible
